Location: Unspecified
(22.6800°N, 112.2000°E)
Time: 21:02:02
(UTC+08:00)

Courier 1B - All Passes

Search period start: 02 August 2021 00:00
Search period end: 12 August 2021 00:00
Orbit: 962 x 1209 km, 28.3° (Epoch: 01 August)

Date Brightness Start Highest point End Pass type
(mag) Time Alt. Az. Time Alt. Az. Time Alt. Az.
02 Aug - 01:17:08 10° W 01:24:05 48° SSW 01:30:37 10° SE night (unlit)
02 Aug - 03:14:31 10° WSW 03:17:42 14° SW 03:20:48 10° S night (unlit)
02 Aug - 14:54:06 10° S 14:57:45 14° SE 15:01:27 10° ESE daylight
02 Aug - 16:44:22 10° SW 16:51:39 46° SSE 16:59:05 10° E daylight
02 Aug - 18:38:08 10° WSW 18:46:01 82° NNW 18:53:51 10° ENE daylight
02 Aug - 20:33:12 10° W 20:40:55 57° N 20:48:22 10° ENE visible
02 Aug - 22:28:11 10° WNW 22:35:53 67° NNE 22:43:09 10° E visible
03 Aug - 00:22:55 10° WNW 00:30:17 63° SSW 00:37:11 10° SE visible
03 Aug - 02:19:02 10° WSW 02:24:01 20° SSW 02:28:48 10° SSE night (unlit)
03 Aug - 15:51:01 10° SSW 15:57:46 35° SSE 16:04:42 10° E daylight
03 Aug - 17:44:08 10° WSW 17:51:57 85° SSE 17:59:51 10° ENE daylight
03 Aug - 19:38:59 10° W 19:46:45 60° N 19:54:22 10° ENE visible
03 Aug - 21:34:02 10° WNW 21:41:47 61° N 21:49:10 10° E visible
03 Aug - 23:28:46 10° WNW 23:36:24 79° SSW 23:43:35 10° ESE visible
04 Aug - 01:24:12 10° W 01:30:19 29° SSW 01:36:07 10° SSE night (unlit)
04 Aug - 14:57:59 10° SSW 15:03:56 26° SSE 15:10:04 10° E daylight
04 Aug - 16:50:18 10° WSW 16:57:56 70° SSE 17:05:47 10° ENE daylight
04 Aug - 18:44:47 10° W 18:52:35 65° N 19:00:22 10° ENE daylight
04 Aug - 20:39:53 10° WNW 20:47:38 58° N 20:55:09 10° E visible
04 Aug - 22:34:39 10° WNW 22:42:26 87° NNE 22:49:50 10° ESE visible
05 Aug - 00:29:41 10° W 00:36:34 39° SSW 00:43:03 10° SE night (unlit)
05 Aug - 14:05:24 10° S 14:10:08 18° SSE 14:15:00 10° ESE daylight
05 Aug - 15:56:39 10° SW 16:03:59 56° SSE 16:11:37 10° ENE daylight
05 Aug - 17:50:41 10° W 17:58:26 73° NNW 18:06:20 10° ENE daylight
05 Aug - 19:45:43 10° WNW 19:53:26 57° N 20:01:04 10° ENE visible
05 Aug - 21:40:33 10° WNW 21:48:24 75° NNE 21:55:56 10° E visible
05 Aug - 23:35:21 10° W 23:42:45 52° SSW 23:49:44 10° SE visible
06 Aug - 01:32:19 10° WSW 01:36:29 16° SW 01:40:32 10° S night (unlit)
06 Aug - 13:13:52 10° SSE 13:16:20 12° SE 13:18:51 10° SE daylight
06 Aug - 15:03:13 10° SW 15:10:06 43° SSE 15:17:19 10° E daylight
06 Aug - 16:56:41 10° WSW 17:04:21 84° NNW 17:12:16 10° ENE daylight
06 Aug - 18:51:33 10° W 18:59:15 58° N 19:06:58 10° ENE daylight
06 Aug - 20:46:27 10° WNW 20:54:18 67° N 21:01:55 10° E visible
06 Aug - 22:41:08 10° WNW 22:48:51 67° SSW 22:56:12 10° ESE visible
07 Aug - 00:37:04 10° W 00:42:44 23° SSW 00:48:11 10° SSE night (unlit)
07 Aug - 14:10:02 10° SSW 14:16:17 32° SSE 14:22:51 10° E daylight
07 Aug - 16:02:50 10° WSW 16:10:20 82° SSE 16:18:11 10° ENE daylight
07 Aug - 17:57:25 10° W 18:05:04 61° N 18:12:51 10° ENE daylight
07 Aug - 19:52:22 10° WNW 20:00:08 61° N 20:07:49 10° E visible
07 Aug - 21:47:00 10° WNW 21:54:54 82° SSW 22:02:28 10° ESE visible
07 Aug - 23:42:19 10° W 23:48:58 32° SSW 23:55:19 10° SSE visible
08 Aug - 13:17:11 10° SSW 13:22:32 23° SSE 13:28:05 10° E daylight
08 Aug - 15:09:07 10° WSW 15:16:23 67° SSE 15:24:03 10° ENE daylight
08 Aug - 17:03:21 10° W 17:10:55 67° N 17:18:45 10° ENE daylight
08 Aug - 18:58:17 10° WNW 19:05:57 58° N 19:13:41 10° E daylight
08 Aug - 20:52:56 10° WNW 21:00:51 84° NNE 21:08:35 10° ESE visible
08 Aug - 22:47:51 10° W 22:55:08 43° SSW 23:02:07 10° SE visible
09 Aug - 00:46:11 10° WSW 00:48:55 12° SW 00:51:37 10° SSW night (unlit)
09 Aug - 12:24:54 10° S 12:28:48 16° SE 12:32:49 10° ESE daylight
09 Aug - 14:15:37 10° SW 14:22:30 52° SSE 14:29:49 10° E daylight
09 Aug - 16:09:22 10° W 16:16:49 75° NNW 16:24:38 10° ENE daylight
09 Aug - 18:04:12 10° WNW 18:11:45 57° N 18:19:30 10° ENE daylight
09 Aug - 19:58:54 10° WNW 20:06:46 73° NNE 20:14:34 10° E visible
09 Aug - 21:53:35 10° WNW 22:01:14 56° SSW 22:08:39 10° SE visible
09 Aug - 23:50:09 10° WSW 23:55:07 18° SSW 23:59:59 10° S visible
10 Aug - 13:22:19 10° SW 13:28:42 39° SSE 13:35:29 10° E daylight
10 Aug - 15:15:30 10° WSW 15:22:48 87° NNW 15:30:32 10° ENE daylight
10 Aug - 17:10:09 10° W 17:17:35 58° N 17:25:19 10° ENE daylight
10 Aug - 19:04:53 10° WNW 19:12:37 65° N 19:20:26 10° E daylight
10 Aug - 20:59:26 10° WNW 21:07:16 71° SSW 21:14:57 10° ESE visible
10 Aug - 22:55:06 10° W 23:01:19 26° SSW 23:07:21 10° SSE visible
11 Aug - 12:29:16 10° SSW 12:34:59 28° SSE 12:40:58 10° E daylight
11 Aug - 14:21:46 10° WSW 14:28:51 78° SSE 14:36:25 10° ENE daylight
11 Aug - 16:16:08 10° W 16:23:26 61° N 16:31:08 10° ENE daylight
11 Aug - 18:10:53 10° WNW 18:18:28 60° N 18:26:14 10° E daylight
11 Aug - 20:05:23 10° WNW 20:13:15 85° SSW 20:21:06 10° ESE visible
11 Aug - 22:00:29 10° W 22:07:27 35° SSW 22:14:16 10° SSE visible
